Content
SEND FEEDBACK

Daily
Averages
Monthly
Summary
United States of America

AGANA, GUAM


Home > North America > United States > Guam
Elevation: 246 feet     Latitude: 13 29N     Longitude: 144 48E

WEATHER
 
SELECT A DAY
Number of Records: 215,541;   Date Range: 1/1/95 - 12/18/14
 
SHARE

PRINT THIS DATA

[ ← Previous Day ]
WEATHER ALMANAC - NOVEMBER 28, 2013
[ Next Day → ]
[ °C ]   °F
Weather ElementAverageHighLow
Temperature82.5 °F87.1 °F (11:54 am)77 °F (11:54 pm)
Dewpoint73.1 °F73.9 °F (4:54 pm)71.1 °F (6:54 am)
Humidity73.6 %90 % (11:54 pm)63 % (11:54 am)
Barometer29.87 in29.92 in (9:54 pm)29.80 in (2:54 pm)
Wind Speed9.4 mph18.4 mph (11:54 am)
Wind Gust25.3 mph (10:54 am)
Weather ElementAverage
Visibility10 mi
Wind DirectionENE (77.8 °)

Weather ElementTotal
Precipitation---
Cooling Degree Days17.1 (Base 65)
Growing Degree Days32.1 (Base 50)
Averaged from 23 records on November 28, 2013
WEATHER CONDITIONS BREAKOUT
WIND DIRECTION BREAKOUT
WEATHER BY HOUR - NOVEMBER 28, 2013
[ °C ]   °F
Local TimeTemperatureDewpointHumidityBarometerVisibilityWind DirectionWind SpeedGust SpeedPrecipitationEventsConditions
1:54 AM81.0 °F73.0 °F77 %29.88 in10.0 miENE (70°)9.2 mphPartly Cloudy
2:54 AM80.1 °F73.0 °F79 %29.87 in10.0 miENE (60°)6.9 mphPartly Cloudy
3:54 AM80.1 °F72.0 °F76 %29.87 in10.0 miENE (70°)8.1 mphPartly Cloudy
4:54 AM80.1 °F73.0 °F79 %29.87 in10.0 miEast (80°)8.1 mphPartly Cloudy
5:54 AM79.0 °F72.0 °F79 %29.88 in10.0 miEast (80°)6.9 mphClear
6:54 AM79.0 °F71.1 °F77 %29.89 in10.0 miEast (80°)5.8 mphClear
7:54 AM82.0 °F73.0 °F74 %29.91 in10.0 miENE (70°)10.4 mphClear
8:54 AM84.0 °F73.0 °F69 %29.91 in10.0 miEast (90°)9.2 mph20.7 mphClear
9:54 AM86.0 °F73.0 °F65 %29.90 in10.0 miEast (90°)13.8 mphClear
10:54 AM86.0 °F73.0 °F65 %29.88 in10.0 miEast (90°)16.1 mph25.3 mphClear
11:54 AM87.1 °F73.0 °F63 %29.86 in10.0 miENE (70°)18.4 mph24.2 mphPartly Cloudy
12:54 PM86.0 °F73.0 °F65 %29.83 in10.0 miEast (90°)12.7 mphClear
1:54 PM87.1 °F73.0 °F63 %29.81 in10.0 miEast (80°)15.0 mphPartly Cloudy
2:54 PM86.0 °F73.0 °F65 %29.80 in10.0 miEast (90°)13.8 mphPartly Cloudy
3:54 PM84.9 °F73.0 °F67 %29.80 in10.0 miEast (90°)13.8 mphPartly Cloudy
4:54 PM84.0 °F73.9 °F72 %29.83 in10.0 miEast (80°)9.2 mphScattered Clouds
5:54 PM82.0 °F73.9 °F76 %29.84 in10.0 miEast (90°)6.9 mphPartly Cloudy
6:54 PM81.0 °F73.9 °F79 %29.86 in10.0 miEast (90°)5.8 mphScattered Clouds
7:54 PM82.0 °F73.9 °F76 %29.89 in10.0 miENE (70°)6.9 mphPartly Cloudy
8:54 PM81.0 °F73.9 °F79 %29.91 in10.0 miEast (80°)5.8 mphPartly Cloudy
9:54 PM81.0 °F73.9 °F79 %29.92 in10.0 miEast (80°)4.6 mphClear
10:54 PM81.0 °F73.9 °F79 %29.91 in10.0 miENE (60°)5.8 mphScattered Clouds
11:54 PM77.0 °F73.9 °F90 %29.91 in10.0 miNE (40°)3.5 mphClear
Hourly data recorded from PGUM, located miles away from Agana, Guam







STORIES FROM OUR PARTNERS